Voltar ao catálogo

FENGYUN 1D

AtivoMeteoSSO
NORAD 27431·PAYLOAD·🇨🇳 China

Lançado May 15, 2002 de Taiyuan Satellite Launch Center

Loading…

Próximas Passagens (próximas 24 horas)

TLE

AtualizadoSource: Space-Track

Época: Sep 14, 2026, 09:40 UTC

1 27431U 02024B   26257.40307039 -.00000019  00000-0  14694-4 0  9992
2 27431  98.9431 307.2880 0015207 355.7592   4.3447 14.10234140252058

Acompanhe FENGYUN 1D em tempo real com AllMySat

Download on the App Store